Location: Newark
(48.8656°N, 2.3211°E)
Time: 20:59:07
(UTC+00:00)

Envisat - Pass Details

Date: 12 December 2019
Orbit: 764 x 766 km, 98.1° (Epoch: 28 January)

Event Time Altitude Azimuth Distance (km) Brightness Sun altitude
Rises 16:24:01 0° 127° (SE) 3,226 6.0 -5.0°
Reaches altitude 10° 16:26:41 10° 114° (ESE) 2,305 5.1 -5.4°
Maximum altitude 16:30:43 25° 61° (ENE) 1,534 4.0 -6.0°
Drops below altitude 10° 16:34:46 10° 8° (N) 2,317 5.2 -6.6°
Sets 16:37:26 0° 356° (N) 3,248 6.0 -7.0°
